#timestamp,LO_Frequency,Hit,StdDev 
1590392675.8,286047022.0,P
1590392695.6,286047019.0,P
1590392715.5,286047022.0,P
1590392735.3,286047022.0,Y
1590392755.1,286046998.6,P
1590392775.9,286046998.3,N
1590392795.7,286046998.3,N
1590392815.6,286046998.5,N
1590392835.4,286046998.3,N
1590392855.2,286046998.1,N
1590392875.1,286046998.7,N
1590392876.0,286046998.7,N
1590392895.8,286046998.5,N
1590392915.7,286046999.0,N
1590392935.5,286046998.4,N
1590392955.3,286046998.5,N
1590392975.2,286046998.1,N
1590392995.9,286047001.2,N
1590393015.7,286047000.8,N
1590393035.6,286046998.2,N
1590393055.4,286047001.1,N
1590393075.3,286046998.2,N
1590393095.1,286047001.2,N
1590393096.0,286047001.2,N
1590393115.8,286047000.8,N
1590393135.7,286046998.5,N
1590393155.5,286046998.5,N
1590393175.3,286046998.3,N
1590393195.2,286046998.3,N
1590393215.0,286046999.0,N
1590393215.9,286046999.0,N
1590393235.8,286046999.1,N
1590393255.6,286046998.5,N
1590393275.4,286046998.1,N
1590393295.3,286047001.2,N
1590393315.1,286046998.4,N
1590393335.8,286046998.7,N
1590393355.7,286046998.9,N
1590393375.5,286046999.0,N
1590393395.4,286046999.1,N
1590393415.2,286046998.8,N
1590393435.0,286046999.5,N
1590393435.9,286046999.5,N
1590393455.8,286046996.6,Y
1590393475.6,286046999.0,P
1590393495.4,286046998.3,P
1590393515.3,286046999.3,N
1590393535.1,286046998.7,Y
1590393555.9,286047001.1,P
1590393575.7,286046998.4,N
1590393595.5,286046998.5,N
